Cody, WY

9:25 PM MDT on May 24, 2018 (GMT -0600)
Yellowstone Regional

Weather History for KCOD - November, 2013

Change the Weather History Date:

Sunday, November 10, 2013

  Actual Average Record
Temperature  
Mean Temperature 43 °F -  
Max Temperature 60 °F 45 °F 70 °F (1954)
Min Temperature 26 °F 26 °F -9 °F (1935)
Degree Days  
Heating Degree Days 22    
Moisture  
Dew Point 27 °F    
Average Humidity 57    
Maximum Humidity 93    
Minimum Humidity 31    
Precipitation  
Precipitation 0.00 in - - ()
Sea Level Pressure  
Sea Level Pressure 30.13 in    
Wind  
Wind Speed 6 mph (WNW)    
Max Wind Speed 17 mph    
Max Gust Speed 21 mph    
Visibility 10 miles    
Events      
Averages and records for this station are not official NWS values.
T = Trace of Precipitation, MM = Missing Value Source: NWS Daily Summary

Daily Weather History Graph

Daily Weather History Graph

Search for Another Location

Airport or City:

Astronomy

Nov. 10, 2013 Rise Set
Actual Time 7:06 AM MST 4:53 PM MST
Civil Twilight 6:35 AM MST 5:24 PM MST
Nautical Twilight 6:00 AM MST 5:59 PM MST
Astronomical Twilight 5:25 AM MST 6:33 PM MST
Moon 1:15 PM MST (11/10) No Moon Set
Length of Visible Light 10h 49m
Length of Day
9h 47m
First Quarter, 56% of the Moon is Illuminated
Nov 10
First Quarter
Nov 17
Full
Nov 25
Last Quarter
Dec 2
New
Dec 9
First Quarter

Hourly Weather History & Observations

Time (MST) Temp. Windchill Dew Point Humidity Pressure Visibility Wind Dir Wind Speed Gust Speed Precip Events Conditions
12:15 AM 30.2 °F 24.3 °F 24.8 °F 80% 30.14 in 10.0 mi South 5.8 mph - N/A   Overcast
12:35 AM 30.2 °F - 23.0 °F 75% 30.15 in 10.0 mi Calm Calm - N/A   Overcast
12:55 AM 30.2 °F 25.4 °F 23.0 °F 75% 30.13 in 10.0 mi South 4.6 mph - N/A   Mostly Cloudy
1:15 AM 30.2 °F 26.7 °F 24.8 °F 80% 30.13 in 10.0 mi NE 3.5 mph - N/A   Scattered Clouds
1:35 AM 30.2 °F 25.4 °F 23.0 °F 75% 30.13 in 10.0 mi NNE 4.6 mph - N/A   Scattered Clouds
1:55 AM 33.8 °F - 24.8 °F 70% 30.12 in 10.0 mi Calm Calm - N/A   Scattered Clouds
2:35 AM 32.0 °F - 24.8 °F 75% 30.13 in 10.0 mi Calm Calm - N/A   Clear
2:55 AM 30.2 °F 23.4 °F 24.8 °F 80% 30.12 in 10.0 mi South 6.9 mph - N/A   Clear
3:15 AM 30.2 °F 24.3 °F 24.8 °F 80% 30.12 in 10.0 mi ENE 5.8 mph - N/A   Clear
3:55 AM 32.0 °F - 24.8 °F 75% 30.12 in 10.0 mi Calm Calm - N/A   Clear
4:15 AM 32.0 °F 28.7 °F 24.8 °F 75% 30.13 in 10.0 mi West 3.5 mph - N/A   Clear
4:35 AM 33.8 °F - 24.8 °F 70% 30.13 in 10.0 mi Calm Calm - N/A   Clear
4:55 AM 33.8 °F 29.6 °F 24.8 °F 70% 30.13 in 10.0 mi ENE 4.6 mph - N/A   Clear
5:15 AM 33.8 °F 26.4 °F 24.8 °F 70% 30.14 in 10.0 mi WNW 9.2 mph - N/A   Clear
6:15 AM 30.2 °F 23.4 °F 24.8 °F 80% 30.13 in 10.0 mi North 6.9 mph - N/A   Clear
6:35 AM 30.2 °F 25.4 °F 24.8 °F 80% 30.15 in 10.0 mi North 4.6 mph - N/A   Clear
6:55 AM 30.2 °F - 24.8 °F 80% 30.14 in 10.0 mi Calm Calm - N/A   Clear
7:15 AM 32.0 °F 26.4 °F 24.8 °F 75% 30.15 in 10.0 mi NW 5.8 mph - N/A   Clear
7:55 AM 30.2 °F - 26.6 °F 86% 30.15 in 10.0 mi Calm Calm - N/A   Clear
8:15 AM 32.0 °F - 26.6 °F 80% 30.15 in 10.0 mi Calm Calm - N/A   Clear
8:35 AM 33.8 °F 25.8 °F 26.6 °F 75% 30.16 in 10.0 mi NNE 10.4 mph - N/A   Clear
8:55 AM 35.6 °F 27.5 °F 26.6 °F 70% 30.16 in 10.0 mi NNE 11.5 mph - N/A   Clear
9:15 AM 37.4 °F 34.9 °F 26.6 °F 65% 30.16 in 10.0 mi NNE 3.5 mph - N/A   Clear
9:35 AM 39.2 °F 35.9 °F 28.4 °F 65% 30.16 in 10.0 mi North 4.6 mph - N/A   Clear
9:55 AM 39.2 °F 34.2 °F 26.6 °F 61% 30.16 in 10.0 mi ENE 6.9 mph - N/A   Clear
10:15 AM 46.4 °F 44.3 °F 28.4 °F 50% 30.16 in 10.0 mi North 4.6 mph - N/A   Clear
10:35 AM 44.6 °F 40.7 °F 28.4 °F 53% 30.15 in 10.0 mi NE 6.9 mph - N/A   Clear
10:55 AM 42.8 °F 37.0 °F 28.4 °F 57% 30.15 in 10.0 mi NE 10.4 mph - N/A   Clear
11:15 AM 50.0 °F - 30.2 °F 47% 30.15 in 10.0 mi ENE 3.5 mph - N/A   Clear
11:35 AM 48.2 °F - 30.2 °F 50% 30.15 in 10.0 mi East 3.5 mph - N/A   Clear
11:55 AM 51.8 °F - 32.0 °F 47% 30.13 in 10.0 mi WNW 3.5 mph - N/A   Clear
12:15 PM 55.4 °F - 33.8 °F 44% 30.12 in 10.0 mi West 12.7 mph 17.3 mph N/A   Clear
12:35 PM 57.2 °F - 32.0 °F 38% 30.11 in 10.0 mi West 11.5 mph 19.6 mph N/A   Clear
12:55 PM 59.0 °F - 32.0 °F 36% 30.11 in 10.0 mi West 11.5 mph 18.4 mph N/A   Clear
1:15 PM 57.2 °F - 32.0 °F 38% 30.11 in 10.0 mi West 10.4 mph 17.3 mph N/A   Clear
1:35 PM 55.4 °F - 30.2 °F 38% 30.11 in 10.0 mi NNE 6.9 mph - N/A   Scattered Clouds
1:55 PM 53.6 °F - 32.0 °F 44% 30.11 in 10.0 mi West 8.1 mph - N/A   Mostly Cloudy
2:15 PM 59.0 °F - 30.2 °F 34% 30.11 in 10.0 mi West 8.1 mph 16.1 mph N/A   Overcast
2:35 PM 60.8 °F - 30.2 °F 31% 30.11 in 10.0 mi West 5.8 mph - N/A   Mostly Cloudy
2:55 PM 60.8 °F - 30.2 °F 31% 30.10 in 10.0 mi WSW 6.9 mph - N/A   Mostly Cloudy
3:15 PM 51.8 °F - 30.2 °F 44% 30.10 in 10.0 mi NE 4.6 mph - N/A   Overcast
3:35 PM 55.4 °F - 30.2 °F 38% 30.11 in 10.0 mi NE 3.5 mph - N/A   Mostly Cloudy
3:55 PM 60.8 °F - 30.2 °F 31% 30.11 in 10.0 mi West 9.2 mph - N/A   Scattered Clouds
4:15 PM 59.0 °F - 30.2 °F 34% 30.11 in 10.0 mi West 11.5 mph - N/A   Partly Cloudy
4:35 PM 57.2 °F - 28.4 °F 33% 30.11 in 10.0 mi West 10.4 mph 17.3 mph N/A   Partly Cloudy
4:55 PM 57.2 °F - 28.4 °F 33% 30.11 in 10.0 mi WSW 13.8 mph 20.7 mph N/A   Partly Cloudy
5:35 PM 55.4 °F - 28.4 °F 36% 30.11 in 10.0 mi WSW 13.8 mph 18.4 mph N/A   Partly Cloudy
5:55 PM 55.4 °F - 28.4 °F 36% 30.11 in 10.0 mi WSW 10.4 mph 18.4 mph N/A   Partly Cloudy
6:15 PM 55.4 °F - 28.4 °F 36% 30.11 in 10.0 mi West 8.1 mph - N/A   Partly Cloudy
6:35 PM 55.4 °F - 28.4 °F 36% 30.11 in 10.0 mi WSW 10.4 mph - N/A   Partly Cloudy
6:55 PM 53.6 °F - 28.4 °F 38% 30.12 in 10.0 mi WSW 5.8 mph - N/A   Scattered Clouds
7:15 PM 51.8 °F - 28.4 °F 41% 30.12 in 10.0 mi SW 6.9 mph - N/A   Mostly Cloudy
7:35 PM 51.8 °F - 28.4 °F 41% 30.12 in 10.0 mi SW 8.1 mph - N/A   Mostly Cloudy
7:55 PM 48.2 °F - 28.4 °F 46% 30.12 in 10.0 mi SSW 11.5 mph - N/A   Mostly Cloudy
8:15 PM 48.2 °F - 28.4 °F 46% 30.12 in 10.0 mi SSW 9.2 mph - N/A   Overcast
8:35 PM 48.2 °F - 28.4 °F 46% 30.12 in 10.0 mi SW 10.4 mph - N/A   Mostly Cloudy
8:55 PM 50.0 °F - 28.4 °F 43% 30.12 in 10.0 mi SW 5.8 mph - N/A   Mostly Cloudy
9:15 PM 48.2 °F - 28.4 °F 46% 30.12 in 10.0 mi SSW 3.5 mph - N/A   Mostly Cloudy
9:55 PM 48.2 °F - 26.6 °F 43% 30.12 in 10.0 mi SSE 3.5 mph - N/A   Mostly Cloudy
10:15 PM 46.4 °F 43.5 °F 26.6 °F 46% 30.13 in 10.0 mi ESE 5.8 mph - N/A   Mostly Cloudy
10:55 PM 33.8 °F 23.2 °F 23.0 °F 65% 30.14 in 10.0 mi NE 17.3 mph - N/A   Partly Cloudy
11:15 PM 26.6 °F 14.7 °F 24.8 °F 93% 30.15 in 10.0 mi NNE 15.0 mph - N/A   Clear
11:35 PM 26.6 °F 14.7 °F 24.8 °F 93% 30.16 in 7.0 mi NE 15.0 mph 20.7 mph N/A   Mostly Cloudy
11:55 PM 26.6 °F 15.7 °F 24.8 °F 93% 30.17 in 2.0 mi NNE 12.7 mph 20.7 mph N/A   Overcast